Enid, OK

12:50 PM CDT on March 23, 2017 (GMT -0500)
Enid Woodring Municipal

Weather History for KWDG - October, 2012

Change the Weather History Date:

Saturday, October 6, 2012

  Actual Average Record
Temperature  
Mean Temperature 44 °F -  
Max Temperature 50 °F 72 °F 86 °F (2010)
Min Temperature 39 °F 53 °F 37 °F (2001)
Degree Days  
Heating Degree Days 20    
Moisture  
Dew Point 34 °F    
Average Humidity 68    
Maximum Humidity 81    
Minimum Humidity 47    
Precipitation  
Precipitation 0.00 in - - ()
Sea Level Pressure  
Sea Level Pressure 30.30 in    
Wind  
Wind Speed 9 mph (NNE)    
Max Wind Speed 18 mph    
Max Gust Speed 23 mph    
Visibility 10 miles    
Events Rain    
Averages and records for this station are not official NWS values.
T = Trace of Precipitation, MM = Missing Value Source: NWS Daily Summary

Daily Weather History Graph

Daily Weather History Graph

Search for Another Location

Airport or City:

Trip Planner

Search our weather history database for the weather conditions in past years. The results will help you decide how hot, cold, wet, or windy it might be!

Date:

Astronomy

Oct. 06, 2012 Rise Set
Actual Time 7:30 AM CDT 7:06 PM CDT
Civil Twilight 7:05 AM CDT 7:32 PM CDT
Nautical Twilight 6:35 AM CDT 8:02 PM CDT
Astronomical Twilight 6:05 AM CDT 8:32 PM CDT
Moon 11:31 PM CDT (10/6) 1:18 PM CDT (10/6)
Length of Visible Light 12h 27m
Length of Day
11h 35m
Waning Gibbous, 65% of the Moon is Illuminated
Oct 6
Waning Gibbous
Oct 8
Last Quarter
Oct 15
New
Oct 21
First Quarter
Oct 29
Full

Hourly Weather History & Observations

Time (CDT) Temp. Windchill Dew Point Humidity Pressure Visibility Wind Dir Wind Speed Gust Speed Precip Events Conditions
12:15 AM 42.8 °F 38.0 °F 32.0 °F 66% 30.28 in 10.0 mi North 8.1 mph - N/A   Clear
12:35 AM 41.0 °F 35.8 °F 33.8 °F 76% 30.29 in 10.0 mi North 8.1 mph - N/A   Clear
12:55 AM 42.8 °F 38.0 °F 33.8 °F 70% 30.29 in 10.0 mi North 8.1 mph - N/A   Clear
1:15 AM 42.8 °F 37.5 °F 33.8 °F 70% 30.29 in 10.0 mi North 9.2 mph - N/A   Clear
1:55 AM 41.0 °F 34.7 °F 33.8 °F 76% 30.29 in 10.0 mi North 10.4 mph - N/A   Clear
2:15 AM 41.0 °F 34.7 °F 33.8 °F 76% 30.29 in 10.0 mi North 10.4 mph - N/A   Clear
2:35 AM 41.0 °F 35.2 °F 33.8 °F 76% 30.29 in 10.0 mi North 9.2 mph - N/A   Clear
2:55 AM 42.8 °F 38.0 °F 33.8 °F 70% 30.29 in 10.0 mi NNE 8.1 mph - N/A   Clear
3:15 AM 42.8 °F 38.6 °F 33.8 °F 70% 30.29 in 10.0 mi NE 6.9 mph - N/A   Clear
3:55 AM 41.0 °F 36.4 °F 33.8 °F 76% 30.27 in 10.0 mi NNE 6.9 mph - N/A   Scattered Clouds
4:15 AM 42.8 °F 40.1 °F 33.8 °F 70% 30.27 in 10.0 mi NNE 4.6 mph - N/A   Mostly Cloudy
4:35 AM 42.8 °F 38.6 °F 33.8 °F 70% 30.27 in 10.0 mi NNE 6.9 mph - N/A   Mostly Cloudy
4:55 AM 42.8 °F 39.3 °F 33.8 °F 70% 30.27 in 10.0 mi NNE 5.8 mph - N/A   Mostly Cloudy
5:15 AM 42.8 °F 38.0 °F 35.6 °F 76% 30.26 in 10.0 mi North 8.1 mph - N/A   Mostly Cloudy
5:35 AM 44.6 °F 39.7 °F 35.6 °F 71% 30.26 in 10.0 mi NNE 9.2 mph - N/A   Mostly Cloudy
5:55 AM 44.6 °F 40.2 °F 33.8 °F 66% 30.26 in 10.0 mi NNE 8.1 mph - N/A   Scattered Clouds
6:17 AM 44.6 °F 38.8 °F 35.6 °F 71% 30.28 in 10.0 mi NNE 11.5 mph - N/A   Overcast
6:50 AM 46.4 °F 41.1 °F 35.6 °F 66% 30.28 in 10.0 mi NNE 11.5 mph - N/A   Overcast
7:50 AM 44.6 °F 39.7 °F 37.4 °F 76% 30.30 in 10.0 mi NNE 9.2 mph - N/A Rain Light Rain
8:55 AM 44.6 °F 39.7 °F 39.2 °F 81% 30.32 in 10.0 mi NNE 9.2 mph - N/A   Overcast
10:50 AM 46.4 °F 41.1 °F 35.6 °F 66% 30.34 in 10.0 mi NNE 11.5 mph - N/A   Overcast
12:55 PM 48.2 °F - 33.8 °F 58% 30.33 in 10.0 mi NE 15.0 mph - N/A   Overcast
1:50 PM 48.2 °F - 32.0 °F 54% 30.31 in 10.0 mi NE 13.8 mph - N/A   Overcast
2:50 PM 50.0 °F - 33.8 °F 54% 30.28 in 10.0 mi NNE 18.4 mph - N/A   Overcast
4:50 PM 50.0 °F - 32.0 °F 50% 30.28 in 10.0 mi NE 13.8 mph 20.7 mph N/A   Overcast
5:50 PM 50.0 °F - 30.2 °F 47% 30.28 in 10.0 mi NNE 15.0 mph - N/A   Overcast
6:50 PM 46.4 °F 39.8 °F 32.0 °F 57% 30.30 in 10.0 mi NNE 16.1 mph 23.0 mph N/A   Overcast
8:50 PM 44.6 °F 39.7 °F 33.8 °F 66% 30.33 in 10.0 mi North 9.2 mph - N/A   Overcast
9:15 PM 42.8 °F 40.1 °F 32.0 °F 66% 30.33 in 10.0 mi North 4.6 mph - N/A   Mostly Cloudy
9:35 PM 42.8 °F 40.1 °F 33.8 °F 70% 30.32 in 10.0 mi North 4.6 mph - N/A   Overcast
9:55 PM 42.8 °F 38.6 °F 33.8 °F 70% 30.33 in 10.0 mi North 6.9 mph - N/A   Mostly Cloudy
10:15 PM 41.0 °F 37.1 °F 32.0 °F 70% 30.34 in 10.0 mi North 5.8 mph - N/A   Clear
10:35 PM 41.0 °F 36.4 °F 32.0 °F 70% 30.34 in 10.0 mi North 6.9 mph - N/A   Clear
10:55 PM 39.2 °F 34.2 °F 32.0 °F 75% 30.34 in 10.0 mi North 6.9 mph - N/A   Clear
11:15 PM 39.2 °F 37.0 °F 32.0 °F 75% 30.34 in 10.0 mi NW 3.5 mph - N/A   Clear
11:35 PM 41.0 °F 39.0 °F 32.0 °F 70% 30.34 in 10.0 mi NNW 3.5 mph - N/A   Clear
11:55 PM 41.0 °F 37.1 °F 32.0 °F 70% 30.34 in 10.0 mi North 5.8 mph - N/A   Clear